Find Yaogan Weixing 11

NORAD ID: 37165 Int'l Des: 2010-047 Owner: ZZB Country: CN Constellation: yaogan operational
LEOCIRCULARRETROGRADE

实时位置

正在加载3D地球...

关于 Yaogan Weixing 11

正在加载描述...

即将过境

Passes for default location (London). Set your location on the main map for personalized predictions.

高度历史

Loading altitude history...

两行轨道根数

1 37165U 10047A 26104.58528189 .00000464 00000-0 65349-4 0 9998
2 37165 98.3947 327.6626 0036046 86.7157 273.8178 14.81985069838678
Epoch: Apr 14, 2026 • Age: 7 hours

当前状态

高度 634.5 km
速度 7.54 km/s
星下点 -10.66°S, 17.39°W
发射日期 Sep 22, 2010
运行时间 15.5 years
类型 military

技术详情

分类 Payload
质量 800.00 kg
干质量 800.00 kg
总质量 800.00 kg
长度 2.00 m
直径 1.50 m
跨度 4.00 m
形状 Box + 2 Pan
制造商 DFHZ
平台类型 CAST-2000
阶段状态 In Orbit
所有者/国家 ZZB/CN

Most Searched